This is the latest recevied weather packets stored in our database for station/object NO4D. If no packets are shown the sender has not sent any weather packets the latest 10 day(s).
| Time | Temp. | Humidity | Pressure | Rain* | Wind** | Luminosity | Snow |
|---|---|---|---|---|---|---|---|
| 1778120232 | 18.33° C | 99% | 1014.2 hPa | 4.83 mm | - | 0 W/m² | - |
| 1778119927 | 18.33° C | 99% | 1014.3 hPa | 4.83 mm | - | 0 W/m² | - |
| 1778119627 | 18.33° C | 99% | 1014 hPa | 4.83 mm | - | 0 W/m² | - |
| 1778119322 | 18.33° C | 99% | 1014.8 hPa | 6.1 mm | - | 0 W/m² | - |
| 1778119020 | 18.33° C | 99% | 1014.4 hPa | 4.83 mm | - | 0 W/m² | - |
| 1778118718 | 18.33° C | 99% | 1014.6 hPa | 6.1 mm | - | 0 W/m² | - |
| 1778118414 | 18.33° C | 99% | 1014.5 hPa | 6.1 mm | - | 0 W/m² | - |
| 1778118110 | 18.33° C | 99% | 1014 hPa | 6.1 mm | - | 0 W/m² | - |
| 1778117807 | 18.33° C | 99% | 1014.4 hPa | 6.1 mm | - | 0 W/m² | - |
| 1778117504 | 18.33° C | 99% | 1014.2 hPa | 4.83 mm | - | 0 W/m² | - |
| 1778117202 | 18.33° C | 99% | 1014.7 hPa | 4.32 mm | - | 0 W/m² | - |
| 1778116897 | 18.33° C | 99% | 1014.6 hPa | 4.32 mm | - | 0 W/m² | - |
| 1778116595 | 18.33° C | 99% | 1013.6 hPa | 4.83 mm | - | 0 W/m² | - |
| 1778116291 | 18.33° C | 99% | 1013.2 hPa | 6.6 mm | - | 0 W/m² | - |
| 1778115986 | 18.33° C | 99% | 1013.8 hPa | 6.1 mm | - | 0 W/m² | - |
| 1778115682 | 18.33° C | 99% | 1013.5 hPa | 6.1 mm | - | 0 W/m² | - |
| 1778115379 | 18.33° C | 99% | 1012.9 hPa | 7.11 mm | - | 0 W/m² | - |
| 1778115076 | 18.33° C | 99% | 1012.8 hPa | 7.11 mm | - | 0 W/m² | - |
| 1778114773 | 18.33° C | 99% | 1012.8 hPa | 7.87 mm | - | 0 W/m² | - |
| 1778114470 | 18.33° C | 99% | 1012.4 hPa | 7.87 mm | - | 0 W/m² | - |
| 1778114166 | 18.33° C | 99% | 1012.8 hPa | 7.11 mm | - | 0 W/m² | - |
| 1778113861 | 18.33° C | 99% | 1012.7 hPa | 8.89 mm | - | 0 W/m² | - |
| 1778113558 | 18.33° C | 99% | 1012.8 hPa | 7.87 mm | - | 0 W/m² | - |
| 1778113254 | 18.33° C | 99% | 1013.1 hPa | 7.87 mm | - | 0 W/m² | - |
| 1778112951 | 18.33° C | 99% | 1013 hPa | 7.87 mm | - | 0 W/m² | - |
* Rain latest hour (hover to see other rain measurements)
** Current wind speed in m/s (hover to see current wind gust speed)